Temp
5 5 6 5 4 2 2 2 4 5 4 4 3 3 3 3 2 3 2 2 2 2 3 5 6 7 7 5 5 7 8 7 6 7 6 6 6 6 5 5 6 5 5 7 7 7 7
5 5 5 2 2 2 1 2 3 5 5 3 3 2 2 3 3 3 2 2 3 3 4 6 6 7 7 6 6 6 6 6 7 7 6 6 6 6 6 5 5 5 5 5 6 6 6
5 3 2 2 1 1 1 2 2 2 2 3 1 2 2 2 2 2 3 3 4 5 5 6 5 5 6 5 5 6 6 6 6 6 6 6 6 6 6 5 5 5 4 4 5 6 5
4 2 1 1 2 1 1 1 1 1 0 1 0 1 1 2 2 3 3 4 5 5 6 7 6 5 4 4 5 6 5 6 5 5 6 6 6 6 6 6 5 4 4 2 5 6 6
2 1 1 1 2 1 1 1 1 1 1 1 1 1 2 3 3 3 4 4 5 5 6 6 5 6 4 4 5 5 4 5 5 5 5 5 6 6 5 3 2 4 -0 4 4 6 6
1 1 1 2 1 1 1 1 1 1 2 2 2 2 2 2 2 3 4 4 4 4 4 5 5 5 3 4 5 4 5 5 5 5 5 5 5 3 3 4 0 2 2 3 3 6 6
1 1 1 1 1 1 1 1 1 1 1 1 2 2 2 2 2 3 3 4 4 4 4 4 5 5 5 5 5 4 5 5 5 5 4 4 3 1 2 3 3 3 3 3 4 6 6
1 1 1 1 1 1 2 2 2 1 2 1 1 1 1 1 1 2 2 1 1 1 4 4 4 5 4 4 4 5 5 5 5 3 4 4 3 4 3 3 4 4 4 4 6 6 7
1 1 1 1 1 1 2 2 2 2 2 2 2 2 2 1 1 1 1 0 2 2 3 3 4 4 4 5 5 5 5 5 5 4 4 3 5 6 5 4 4 5 4 4 5 7 7
2 1 1 1 1 2 3 2 2 2 2 2 1 2 2 2 2 1 0 1 2 1 4 3 4 4 4 5 5 5 5 5 6 5 5 4 5 5 6 4 4 4 6 6 6 6 7
2 0 1 1 1 3 3 3 2 2 2 2 1 1 1 2 1 1 0 1 1 2 4 2 3 3 4 5 4 5 5 6 6 7 7 4 6 6 6 7 7 6 7 7 7 6 6
4 1 1 1 2 2 4 4 2 2 3 3 3 2 2 1 1 1 0 1 1 1 4 4 3 4 4 6 6 5 5 5 5 6 6 5 7 6 6 6 7 7 6 6 7 7 7
4 2 1 1 2 2 5 6 4 3 4 3 3 3 3 2 1 1 2 2 -0 3 3 4 4 5 5 5 6 6 5 5 5 5 5 5 6 6 6 6 6 6 6 7 6 8 8
4 4 1 1 1 4 5 7 6 4 2 3 3 4 3 3 3 2 2 -0 4 5 5 4 6 5 4 6 6 6 5 5 5 5 5 4 4 6 7 6 7 7 7 7 8 9 8
5 4 4 2 3 3 6 7 7 6 5 4 4 4 4 3 3 3 1 3 4 5 6 5 6 6 6 5 6 6 5 5 6 5 5 7 6 7 6 7 8 8 7 7 7 7 8
5 5 4 3 3 5 5 6 7 8 8 7 6 5 5 6 6 6 3 4 4 6 6 6 6 6 6 6 6 5 6 6 7 6 6 7 7 7 8 7 7 7 8 7 7 8 9
5 5 5 3 3 3 6 7 7 8 8 9 9 6 6 7 7 6 3 4 4 5 5 6 7 7 6 6 7 7 7 7 7 6 6 6 7 8 8 8 9 8 7 7 7 7 8
5 5 5 5 4 4 5 7 7 7 8 9 9 1 6 8 4 1 2 3 4 5 5 6 7 8 7 7 7 7 7 7 8 6 6 6 7 6 9 10 10 9 8 8 7 7 6
5 5 5 5 5 4 4 5 6 7 7 7 6 6 6 6 1 -0 2 4 4 4 5 5 7 7 8 8 8 8 8 9 9 8 9 8 7 6 8 9 9 8 8 7 8 7 6
5 5 5 5 5 5 4 4 5 6 6 5 5 -0 5 5 3 2 2 2 3 6 6 6 6 7 8 6 6 7 7 9 9 8 9 8 5 6 5 7 7 6 7 7 8 7 7
5 5 5 5 5 5 4 4 4 5 5 5 4 -0 2 -1 1 1 2 3 4 4 6 7 7 5 7 6 6 6 6 6 8 8 8 7 6 4 7 7 7 7 6 7 6 7 7
6 5 5 5 5 4 4 4 4 5 4 5 4 3 3 2 2 2 1 3 4 5 5 6 6 6 5 5 6 6 5 7 7 6 7 5 4 6 8 6 6 7 6 6 7 7 6
6 5 6 5 5 4 5 5 5 5 4 5 3 3 5 1 1 1 1 3 4 4 7 6 5 5 6 6 5 6 6 6 6 6 6 6 4 3 5 4 6 8 7 7 7 7 7
6 5 5 6 5 5 4 5 6 5 5 5 5 3 4 1 1 2 3 3 4 4 5 6 6 6 7 7 8 7 7 7 7 6 5 6 4 2 2 4 5 7 7 7 7 7 6
7 5 5 6 5 5 4 5 5 5 4 4 4 4 4 -0 2 3 3 3 4 5 5 6 7 7 7 7 6 6 5 7 8 7 7 5 4 3 3 1 6 8 7 7 8 8 7
7 5 4 6 6 5 4 3 4 4 4 4 4 4 3 2 1 4 3 3 2 2 3 6 7 7 7 4 4 6 6 6 6 5 6 4 3 4 4 5 8 8 7 8 7 6 6
7 5 4 5 6 5 5 3 4 4 4 3 3 3 3 3 3 3 3 3 4 2 1 3 5 6 7 3 5 4 3 5 5 5 6 4 3 4 4 4 5 6 7 8 8 7 7
6 5 4 4 5 4 4 3 3 3 4 3 3 3 3 3 3 4 4 4 3 3 2 5 4 4 3 4 4 3 3 3 3 4 6 5 4 4 3 4 5 7 7 7 6 7 7
6 5 4 4 5 4 3 3 2 3 3 3 3 3 3 3 3 4 4 5 5 5 4 4 4 4 4 0 1 1 4 1 2 4 4 4 4 4 4 5 6 7 7 8 8 8 8
Height
1520 1514 1507 1499 1489 1481 1473 1464 1452 1446 1446 1449 1452 1456 1458 1459 1460 1459 1460 1459 1457 1457 1457 1459 1460 1461 1462 1470 1473 1473 1474 1478 1481 1485 1488 1491 1491 1493 1496 1498 1498 1499 1497 1496 1496 1494 1491
1519 1512 1504 1495 1486 1480 1469 1458 1442 1434 1433 1440 1446 1453 1457 1456 1457 1457 1457 1456 1454 1453 1453 1456 1457 1458 1464 1470 1472 1474 1478 1480 1482 1485 1488 1492 1492 1494 1495 1498 1499 1498 1497 1495 1492 1489 1488
1518 1509 1501 1493 1487 1480 1470 1459 1448 1435 1429 1434 1443 1450 1455 1455 1455 1454 1454 1453 1451 1449 1450 1454 1457 1457 1462 1470 1474 1477 1481 1483 1484 1487 1489 1493 1494 1495 1496 1498 1499 1498 1498 1495 1486 1484 1484
1515 1508 1501 1493 1488 1482 1474 1465 1457 1449 1444 1444 1446 1450 1453 1453 1454 1453 1452 1449 1446 1445 1445 1451 1456 1460 1467 1471 1475 1477 1482 1485 1486 1489 1491 1493 1496 1496 1497 1498 1499 1500 1501 1504 1485 1482 1479
1515 1508 1501 1495 1489 1484 1477 1469 1462 1458 1454 1453 1453 1453 1454 1454 1453 1453 1451 1447 1445 1442 1442 1450 1456 1462 1470 1472 1474 1479 1484 1486 1489 1491 1492 1495 1497 1496 1497 1500 1506 1501 1516 1498 1491 1478 1478
1515 1509 1503 1497 1491 1486 1480 1474 1467 1462 1458 1457 1456 1456 1455 1455 1454 1452 1450 1448 1447 1446 1450 1455 1461 1466 1471 1472 1474 1480 1486 1488 1490 1492 1495 1497 1498 1498 1498 1499 1519 1506 1505 1496 1491 1478 1476
1514 1509 1503 1498 1493 1488 1482 1475 1470 1466 1463 1460 1457 1456 1454 1454 1452 1450 1448 1447 1453 1454 1455 1458 1461 1464 1468 1474 1478 1482 1486 1489 1491 1494 1497 1497 1499 1502 1498 1498 1499 1502 1502 1497 1484 1478 1478
1515 1510 1505 1498 1494 1489 1483 1476 1471 1468 1465 1462 1459 1456 1455 1453 1452 1453 1450 1451 1456 1457 1458 1460 1463 1467 1470 1475 1478 1484 1488 1492 1493 1497 1496 1499 1499 1491 1493 1496 1498 1496 1493 1486 1474 1469 1468
1516 1511 1507 1500 1493 1489 1484 1478 1473 1469 1466 1462 1459 1456 1454 1453 1455 1456 1456 1458 1458 1457 1461 1467 1468 1471 1475 1478 1479 1484 1489 1491 1493 1496 1496 1497 1489 1485 1490 1493 1494 1490 1489 1483 1479 1466 1461
1516 1510 1506 1502 1495 1488 1485 1479 1474 1468 1464 1461 1460 1458 1457 1454 1458 1458 1459 1459 1459 1459 1466 1474 1472 1475 1479 1480 1483 1486 1489 1493 1491 1491 1492 1493 1486 1485 1485 1486 1489 1487 1474 1473 1471 1469 1457
1518 1512 1506 1502 1495 1489 1483 1479 1474 1467 1465 1462 1460 1460 1459 1458 1460 1461 1464 1462 1461 1463 1464 1481 1477 1478 1481 1483 1485 1489 1491 1490 1488 1487 1489 1490 1483 1481 1478 1475 1477 1473 1469 1469 1465 1462 1461
1518 1510 1506 1501 1498 1492 1485 1480 1475 1470 1467 1464 1463 1462 1460 1460 1461 1463 1463 1463 1466 1477 1468 1475 1478 1478 1481 1482 1483 1488 1491 1492 1490 1488 1486 1483 1480 1479 1475 1473 1471 1467 1469 1461 1455 1458 1452
1520 1514 1509 1503 1498 1495 1490 1486 1480 1476 1472 1469 1467 1466 1463 1462 1463 1463 1464 1466 1476 1470 1479 1480 1478 1480 1481 1482 1484 1485 1487 1490 1490 1488 1484 1480 1475 1473 1473 1470 1465 1469 1468 1461 1459 1445 1443
1523 1517 1511 1504 1498 1494 1490 1487 1486 1482 1478 1474 1472 1470 1468 1466 1464 1463 1463 1467 1466 1472 1473 1478 1478 1481 1483 1481 1482 1483 1487 1486 1488 1485 1483 1484 1484 1470 1467 1467 1462 1461 1462 1459 1452 1444 1442
1526 1519 1512 1507 1500 1493 1490 1488 1487 1485 1483 1480 1476 1473 1470 1467 1463 1461 1462 1465 1476 1473 1473 1478 1479 1478 1480 1481 1481 1482 1484 1482 1480 1481 1486 1473 1473 1463 1462 1459 1463 1458 1458 1458 1453 1448 1443
1526 1521 1515 1509 1503 1499 1494 1491 1489 1489 1486 1482 1479 1474 1472 1469 1466 1463 1462 1469 1476 1476 1477 1478 1478 1479 1478 1481 1482 1483 1479 1476 1475 1476 1479 1475 1470 1459 1456 1459 1459 1461 1458 1455 1455 1448 1438
1526 1523 1519 1513 1508 1503 1497 1492 1489 1487 1486 1482 1478 1476 1476 1472 1469 1468 1477 1480 1480 1478 1477 1477 1475 1474 1477 1479 1477 1477 1477 1474 1473 1475 1477 1475 1473 1462 1456 1455 1453 1458 1457 1458 1455 1452 1444
1528 1523 1520 1514 1508 1503 1497 1495 1490 1484 1481 1483 1479 1482 1480 1474 1474 1480 1487 1485 1481 1478 1475 1473 1472 1471 1474 1477 1478 1477 1474 1473 1471 1473 1477 1472 1471 1470 1454 1447 1450 1450 1451 1451 1456 1450 1454
1528 1524 1519 1513 1508 1504 1500 1493 1490 1488 1483 1480 1481 1483 1482 1477 1491 1492 1486 1484 1483 1479 1477 1475 1474 1473 1470 1473 1476 1474 1473 1470 1469 1470 1470 1471 1472 1472 1459 1453 1451 1455 1451 1447 1447 1449 1456
1527 1523 1518 1513 1509 1504 1499 1497 1492 1489 1484 1480 1484 1489 1486 1486 1491 1492 1492 1490 1486 1481 1479 1478 1476 1472 1472 1476 1475 1477 1475 1469 1469 1469 1469 1469 1476 1475 1485 1469 1465 1463 1452 1445 1444 1451 1452
1525 1521 1517 1513 1509 1505 1500 1497 1494 1490 1487 1482 1482 1493 1497 1501 1496 1495 1493 1493 1490 1487 1481 1479 1479 1480 1475 1480 1479 1481 1476 1474 1469 1470 1469 1470 1475 1480 1472 1469 1465 1463 1461 1452 1453 1452 1453
1524 1521 1516 1512 1509 1505 1500 1496 1494 1491 1490 1487 1484 1488 1496 1499 1500 1498 1497 1496 1494 1490 1488 1485 1485 1484 1480 1482 1483 1482 1483 1478 1477 1472 1471 1472 1483 1476 1468 1469 1468 1463 1461 1458 1458 1458 1461
1524 1520 1516 1512 1508 1503 1499 1493 1490 1490 1491 1490 1488 1484 1484 1497 1499 1502 1504 1500 1496 1493 1490 1489 1488 1487 1484 1483 1482 1479 1478 1477 1476 1476 1474 1474 1479 1485 1483 1476 1470 1468 1465 1464 1461 1461 1460
1522 1520 1516 1511 1507 1504 1499 1495 1492 1490 1490 1494 1493 1491 1486 1500 1501 1501 1500 1500 1498 1496 1495 1491 1488 1487 1486 1482 1478 1476 1476 1476 1475 1474 1472 1473 1479 1488 1492 1479 1488 1465 1462 1462 1461 1460 1460
1520 1518 1515 1511 1507 1504 1501 1498 1495 1493 1491 1492 1495 1497 1492 1493 1494 1501 1501 1499 1494 1493 1492 1491 1489 1488 1484 1481 1482 1482 1481 1476 1473 1473 1472 1471 1476 1485 1490 1501 1475 1461 1462 1463 1462 1459 1457
1517 1515 1513 1510 1506 1503 1502 1501 1497 1496 1495 1494 1494 1494 1498 1496 1492 1490 1498 1502 1502 1498 1494 1491 1489 1487 1486 1485 1488 1487 1487 1481 1480 1479 1473 1474 1474 1480 1484 1482 1466 1459 1458 1459 1459 1467 1453
1514 1513 1512 1510 1506 1502 1501 1500 1499 1497 1498 1498 1496 1496 1496 1497 1495 1491 1492 1495 1498 1501 1500 1494 1490 1488 1487 1491 1491 1494 1497 1488 1487 1484 1479 1481 1481 1481 1484 1485 1468 1459 1457 1457 1463 1463 1453
1510 1510 1509 1508 1507 1503 1501 1501 1501 1499 1497 1498 1498 1495 1497 1497 1496 1494 1490 1490 1493 1497 1500 1496 1494 1491 1490 1493 1496 1496 1496 1490 1490 1484 1478 1481 1483 1483 1483 1481 1476 1456 1458 1461 1456 1451 1452
1507 1507 1507 1506 1505 1504 1503 1502 1502 1501 1499 1498 1497 1497 1495 1495 1495 1495 1494 1493 1493 1492 1493 1494 1496 1494 1492 1495 1496 1497 1494 1495 1493 1490 1478 1483 1478 1480 1478 1470 1457 1456 1454 1453 1452 1451 1451
Wind_Speed
37 41 44 47 41 42 39 42 39 31 32 27 18 12 11 14 14 13 13 16 15 12 11 10 18 20 29 9 1 7 11 19 16 10 13 12 11 5 4 1 3 2 4 10 14 18 20
40 45 43 35 41 41 41 41 41 25 21 19 12 7 8 10 10 11 14 15 15 13 10 9 6 31 20 4 2 11 14 17 14 12 15 10 6 6 3 1 1 5 8 15 14 21 17
39 38 36 34 34 37 41 42 43 30 25 9 6 3 5 8 9 12 14 16 14 10 8 11 17 17 14 9 13 13 14 12 8 16 13 9 6 5 4 1 2 7 7 7 13 14 7
38 33 32 31 30 35 35 38 39 34 29 19 10 8 7 11 11 13 14 17 14 11 5 16 22 16 8 17 16 15 11 7 11 10 10 8 7 3 2 1 4 3 1 4 5 3 5
38 32 30 32 32 33 34 35 33 30 26 22 18 13 10 11 11 12 12 14 8 5 9 22 27 11 6 17 17 16 10 12 11 7 5 3 3 1 1 3 3 1 3 6 8 4 3
34 31 30 31 32 33 33 31 29 27 22 19 15 13 12 10 8 9 10 7 13 17 22 29 19 10 11 12 18 17 12 12 10 7 5 3 3 1 3 3 4 4 4 6 8 5 5
32 29 28 30 32 33 33 30 28 25 22 19 16 13 10 7 7 6 7 7 8 6 11 4 10 6 16 16 19 15 12 13 9 3 2 2 1 6 8 7 4 3 6 12 16 15 14
30 28 28 29 31 33 33 30 28 23 22 18 15 13 10 9 6 10 9 11 9 4 9 12 9 10 15 21 12 17 14 7 5 3 2 2 7 11 6 5 8 13 14 16 16 14 6
30 27 26 29 30 32 36 33 31 25 21 15 15 14 14 10 7 9 15 12 11 8 5 6 9 14 14 9 6 15 18 5 4 6 7 5 4 4 8 8 11 13 14 14 13 14 12
30 25 26 29 31 33 38 36 33 27 19 12 12 13 13 6 7 9 15 9 7 7 3 4 4 4 7 8 4 19 19 5 5 7 5 6 8 8 8 9 11 15 11 17 16 10 5
30 25 26 26 30 38 38 36 35 30 19 12 7 9 11 9 7 9 8 6 2 2 4 1 2 9 10 3 13 8 20 4 4 3 3 6 3 6 11 6 12 8 5 8 11 12 12
30 24 23 25 29 35 41 38 36 29 20 14 9 8 10 10 11 10 7 8 4 4 5 2 4 6 5 2 2 10 8 10 4 3 3 8 6 4 4 3 6 6 7 14 13 7 5
30 25 23 24 27 30 37 40 32 31 24 16 11 10 11 11 9 10 4 2 3 5 1 1 6 4 4 3 4 5 6 5 3 3 3 2 4 2 3 6 5 6 4 4 3 2 3
30 28 22 22 23 27 30 31 29 25 24 20 15 15 15 13 10 8 2 2 8 6 5 1 4 5 1 5 2 5 4 3 9 4 3 2 5 6 6 5 2 4 2 2 4 3 3
29 27 23 22 21 21 25 25 23 21 20 15 12 17 26 21 15 7 3 6 3 3 4 4 1 2 1 2 3 4 4 3 3 8 4 2 5 1 8 5 3 2 3 2 4 3 3
27 27 25 22 21 19 20 20 18 19 20 19 17 11 30 19 14 10 5 7 4 4 3 1 1 3 3 2 1 1 2 5 3 6 3 1 5 4 2 5 7 5 3 2 2 3 3
28 27 26 24 23 23 16 14 12 14 20 19 19 6 26 14 11 13 4 4 2 3 2 4 0 2 2 3 1 2 2 2 3 5 7 2 2 5 2 4 3 2 2 2 3 2 2
27 26 26 23 22 22 19 16 12 10 10 15 8 3 23 10 7 4 3 5 7 4 3 1 2 2 3 4 2 2 2 2 1 10 5 5 2 4 6 2 2 2 4 3 1 1 1
26 26 24 23 20 22 23 18 14 13 12 10 4 5 15 14 4 4 5 4 3 8 6 6 5 4 3 2 2 3 3 2 1 3 2 3 2 4 7 5 4 3 6 5 2 1 2
25 26 24 23 21 19 22 22 15 12 10 7 3 3 7 11 8 2 4 5 6 8 4 6 3 2 4 6 6 3 6 2 6 4 1 2 2 1 3 4 3 6 13 7 1 2 1
24 25 25 24 23 20 21 21 17 9 6 4 5 2 2 3 6 4 3 3 5 7 8 13 6 6 1 4 3 5 4 6 3 8 2 2 1 0 3 3 2 2 6 12 7 1 4
22 24 25 24 24 22 23 22 17 8 4 4 4 6 5 3 5 5 6 5 6 6 6 6 4 6 7 4 1 2 1 3 1 6 3 3 1 1 3 5 6 4 9 8 6 6 5
20 21 23 24 24 23 23 20 11 5 4 2 3 11 8 2 2 3 3 4 5 8 2 3 5 3 5 2 9 12 8 6 4 2 2 2 2 2 4 4 6 3 4 4 2 2 3
20 19 21 22 23 23 20 15 10 6 7 2 2 1 3 2 2 0 2 3 4 6 2 8 7 4 8 18 8 4 6 7 3 2 1 1 3 3 3 5 3 4 2 1 2 3 2
20 18 18 19 20 21 18 13 9 7 8 5 2 4 3 3 5 2 5 4 7 9 3 3 4 9 16 10 4 4 4 4 2 2 3 2 3 2 2 2 5 2 4 4 4 4 4
19 17 16 15 16 16 14 10 6 5 6 6 5 4 4 3 5 9 4 3 3 4 6 4 5 9 9 3 4 4 3 2 4 8 2 3 4 3 1 1 4 3 2 3 3 4 5
18 16 15 14 13 11 10 6 5 5 4 3 3 3 2 3 4 8 4 5 2 1 2 5 8 6 10 3 2 0 3 2 4 4 4 3 2 2 2 3 6 4 2 1 3 4 7
17 15 13 13 11 9 7 4 2 3 4 7 7 3 2 3 5 7 7 7 6 3 2 5 3 3 3 4 1 2 1 2 3 3 3 1 1 2 1 1 5 4 3 4 4 2 5
17 16 14 12 10 8 5 3 3 1 2 4 6 6 5 4 4 9 11 9 8 7 4 2 2 3 3 2 1 1 2 2 1 4 2 3 5 2 6 5 4 7 7 6 6 7 7
Wind_Direction
349 348 349 342 343 345 344 340 311 298 279 254 245 257 276 292 296 305 305 311 314 303 293 266 229 199 186 173 296 78 137 147 176 179 175 169 157 132 146 189 344 218 281 295 297 297 286
359 355 344 347 350 352 352 349 352 296 272 252 228 211 259 301 297 304 306 312 311 306 291 206 196 182 184 119 309 123 157 168 175 184 170 174 183 156 136 112 155 338 316 299 296 283 277
355 350 359 357 358 8 8 8 7 37 66 126 155 109 312 327 318 317 317 316 318 299 275 215 182 156 148 160 164 170 176 159 171 175 168 172 142 150 130 56 359 327 322 306 261 265 246
351 1 3 12 6 2 7 15 16 17 35 42 57 40 1 337 336 331 327 326 325 298 237 191 184 155 124 152 165 170 179 164 160 176 185 188 210 166 168 146 343 327 358 340 287 312 258
1 8 10 11 10 5 6 6 13 21 25 21 17 24 353 343 347 339 331 342 359 53 129 162 161 131 132 153 157 162 174 161 156 150 152 183 169 160 111 119 355 44 259 244 297 231 252
6 7 7 8 11 4 8 4 6 7 12 10 9 3 7 12 349 329 337 29 93 114 136 152 139 109 143 163 159 148 170 155 146 144 144 173 195 72 163 167 225 213 248 266 251 299 190
6 9 8 10 9 4 6 4 3 2 2 4 4 4 10 0 337 336 359 94 122 105 72 120 143 67 151 165 156 152 169 157 137 151 186 233 192 224 219 211 223 322 279 276 276 276 285
6 15 11 14 9 7 4 0 358 357 356 358 3 4 359 349 10 22 25 84 36 112 59 103 82 120 148 147 146 176 168 136 142 206 135 86 251 247 200 213 240 255 269 269 278 258 244
7 13 10 14 10 8 5 3 359 357 353 358 10 16 13 18 61 54 69 73 39 109 73 52 77 111 137 139 111 164 174 177 187 204 203 186 232 52 195 229 234 245 250 266 263 295 272
9 11 9 8 14 13 7 7 5 2 360 344 2 12 25 73 42 65 46 32 11 105 95 12 71 104 138 131 90 178 185 180 217 223 198 240 241 233 245 233 206 266 237 248 267 285 287
8 12 9 8 13 20 13 9 7 1 8 6 357 16 31 62 83 62 17 49 138 136 74 62 38 140 135 189 138 181 185 259 259 217 192 256 266 229 239 245 193 243 268 270 268 269 298
8 11 9 8 12 22 21 9 14 27 26 36 27 38 41 64 53 28 24 93 124 47 72 124 143 148 171 76 101 145 188 227 298 317 255 254 267 287 231 293 239 302 304 278 265 250 251
7 11 12 9 19 21 28 20 24 37 38 39 43 40 40 48 31 38 52 105 70 58 305 37 98 157 121 138 152 171 166 186 229 223 236 262 233 259 218 276 216 206 263 306 332 217 254
5 10 11 14 16 32 34 26 19 28 29 36 47 47 38 29 12 351 331 69 59 41 68 126 108 111 115 181 173 174 156 228 236 221 287 294 321 195 179 227 297 219 221 275 297 306 312
4 5 11 7 27 34 39 34 31 34 30 30 52 41 20 10 359 3 109 54 77 21 27 74 96 183 132 185 214 195 203 234 227 187 212 307 274 226 205 212 196 64 244 232 270 223 239
5 1 7 5 7 28 42 41 37 23 6 357 352 355 12 12 37 43 50 76 71 44 19 157 168 187 177 118 120 253 221 188 228 167 178 9 296 207 280 193 248 237 354 292 255 303 321
1 2 0 8 5 9 22 41 46 17 7 0 359 20 3 2 39 47 48 45 343 321 217 203 309 137 111 154 148 227 236 219 241 147 170 259 273 300 289 200 215 169 265 271 278 248 320
357 1 359 3 6 4 12 10 19 32 29 1 27 30 8 22 48 37 33 337 334 298 359 320 226 75 166 148 179 261 287 233 48 145 182 228 269 279 250 348 25 254 270 183 242 207 349
353 355 358 354 358 359 358 9 3 9 24 21 72 19 13 20 64 349 322 335 318 357 1 17 9 23 14 76 69 45 334 304 310 179 229 175 324 319 346 5 6 9 314 241 222 42 39
348 351 351 353 349 352 352 352 359 3 11 57 70 37 10 45 49 39 353 355 348 353 320 350 330 0 51 39 28 27 347 317 352 2 151 140 93 166 172 246 299 328 346 6 114 80 116
345 347 347 349 349 347 351 350 348 359 355 68 86 110 54 357 354 7 19 348 355 5 346 17 20 19 295 50 28 21 334 335 348 14 82 97 89 45 260 296 298 285 342 22 53 316 48
342 344 345 346 349 349 350 349 346 348 353 21 108 134 112 37 343 8 354 1 12 332 11 343 41 339 22 82 119 241 13 34 328 326 43 347 223 54 305 345 357 357 7 18 32 44 64
337 341 344 342 348 349 350 356 11 22 1 19 109 130 130 27 41 51 323 323 338 348 18 21 311 329 8 349 284 272 253 265 259 308 324 69 106 47 275 348 337 346 331 353 335 37 155
330 337 342 340 346 349 356 360 16 48 62 71 104 118 115 107 86 173 337 328 311 321 264 320 347 353 334 325 310 283 263 262 283 40 116 118 112 127 246 355 20 245 264 235 137 292 309
321 329 339 340 345 352 4 12 40 69 91 103 56 339 324 119 142 22 352 324 325 337 336 297 332 333 334 335 3 351 335 349 332 305 356 80 114 44 101 180 281 237 201 188 186 260 196
311 320 331 337 338 354 358 8 40 72 104 91 78 48 336 125 221 149 133 346 339 328 337 309 326 341 356 55 38 351 308 301 315 333 66 60 65 112 105 76 223 248 240 148 154 271 195
297 307 318 327 329 348 357 4 50 78 85 38 22 8 4 322 203 162 161 158 193 302 271 302 334 345 8 27 37 316 287 274 314 313 335 338 1 143 188 244 289 254 210 100 90 245 178
285 292 305 314 318 333 349 2 46 81 63 30 19 8 345 300 250 223 185 170 167 198 191 312 350 350 11 44 38 299 253 281 329 256 299 252 346 256 153 276 298 180 86 165 239 190 180
274 279 288 301 306 312 309 288 285 281 32 35 33 15 343 283 279 248 244 243 239 219 193 255 269 248 193 96 183 202 297 324 207 291 318 281 189 225 186 229 254 213 235 261 240 213 196